Location: Firdgum
(53.2488°N, 5.5615°E)
Time: 13:28:32
(UTC+00:00)

Cosmos 371 Rocket - Pass Details

Date: 08 December 2019
Orbit: 683 x 699 km, 74.0° (Epoch: 23 January)

Event Time Altitude Azimuth Distance (km) Brightness Sun altitude
Rises 06:28:08 0° 197° (SSW) 3,049 6.7 -9.7°
Reaches altitude 10° 06:30:25 10° 196° (SSW) 2,140 5.9 -9.4°
Maximum altitude 06:35:13 72° 113° (ESE) 732 3.6 -8.8°
Drops below altitude 10° 06:40:05 10° 29° (NNE) 2,166 5.9 -8.1°
Sets 06:42:26 0° 28° (NNE) 3,090 6.6 -7.8°
